Time,TemperatureF,DewpointF,PressureIn,WindDirection,WindDirectionDegrees,WindSpeedMPH,WindSpeedGustMPH,Humidity,HourlyPrecipIn,Conditions,Clouds,dailyrainin,SoftwareType,DateUTC
2013-01-04 00:03:00,41.0,24.0,30.32,West,272,1.0,-999.0,51,-99.99,,,-99.99,,2013-01-04 00:03:00,
2013-01-04 00:12:00,41.0,24.0,30.32,West,272,1.0,-999.0,51,-99.99,,,-99.99,,2013-01-04 00:12:00,
2013-01-04 00:22:00,40.0,25.0,30.32,WNW,294,2.0,-999.0,54,-99.99,,,-99.99,,2013-01-04 00:22:00,
2013-01-04 00:32:00,39.0,24.0,30.33,NW,316,2.0,-999.0,55,-99.99,,,-99.99,,2013-01-04 00:32:00,
2013-01-04 00:42:00,39.0,24.0,30.33,NW,316,2.0,-999.0,55,-99.99,,,-99.99,,2013-01-04 00:42:00,
2013-01-04 00:53:00,39.0,25.0,30.33,WNW,296,2.0,-999.0,58,-99.99,,,-99.99,,2013-01-04 00:53:00,
2013-01-04 01:02:00,38.0,25.0,30.34,WNW,288,2.0,-999.0,59,-99.99,,,-99.99,,2013-01-04 01:02:00,
2013-01-04 01:12:00,38.0,25.0,30.34,WNW,288,2.0,-999.0,59,-99.99,,,-99.99,,2013-01-04 01:12:00,
2013-01-04 01:22:00,38.0,26.0,30.34,NW,304,2.0,-999.0,61,-99.99,,,-99.99,,2013-01-04 01:22:00,
2013-01-04 01:32:00,37.0,25.0,30.34,WNW,289,2.0,-999.0,62,-99.99,,,-99.99,,2013-01-04 01:32:00,
2013-01-04 01:42:00,37.0,25.0,30.34,WNW,289,2.0,-999.0,62,-99.99,,,-99.99,,2013-01-04 01:42:00,
2013-01-04 01:52:00,36.0,25.0,30.34,WNW,299,0.0,-999.0,64,-99.99,,,-99.99,,2013-01-04 01:52:00,
2013-01-04 02:02:00,36.0,25.0,30.35,WNW,287,1.0,-999.0,65,-99.99,,,-99.99,,2013-01-04 02:02:00,
2013-01-04 02:12:00,36.0,25.0,30.35,WNW,287,1.0,-999.0,65,-99.99,,,-99.99,,2013-01-04 02:12:00,
2013-01-04 02:22:00,35.0,25.0,30.35,West,271,1.0,-999.0,67,-99.99,,,-99.99,,2013-01-04 02:22:00,
2013-01-04 02:32:00,35.0,26.0,30.35,WNW,284,1.0,-999.0,68,-99.99,,,-99.99,,2013-01-04 02:32:00,
2013-01-04 02:42:00,35.0,26.0,30.35,WNW,284,1.0,-999.0,68,-99.99,,,-99.99,,2013-01-04 02:42:00,
2013-01-04 02:53:00,34.0,25.0,30.35,WNW,291,1.0,-999.0,69,-99.99,,,-99.99,,2013-01-04 02:53:00,
2013-01-04 03:02:00,34.0,25.0,30.35,NW,313,0.0,-999.0,70,-99.99,,,-99.99,,2013-01-04 03:02:00,
2013-01-04 03:12:00,34.0,25.0,30.35,NW,313,0.0,-999.0,70,-99.99,,,-99.99,,2013-01-04 03:12:00,
2013-01-04 03:22:00,33.0,25.0,30.35,NNW,329,0.0,-999.0,71,-99.99,,,-99.99,,2013-01-04 03:22:00,
2013-01-04 03:32:00,33.0,25.0,30.35,NNW,339,0.0,-999.0,71,-99.99,,,-99.99,,2013-01-04 03:32:00,
2013-01-04 03:42:00,33.0,25.0,30.35,NNW,339,0.0,-999.0,71,-99.99,,,-99.99,,2013-01-04 03:42:00,
2013-01-04 03:53:00,33.0,25.0,30.35,North,356,0.0,-999.0,71,-99.99,,,-99.99,,2013-01-04 03:53:00,
2013-01-04 04:02:00,32.0,24.0,30.36,North,352,0.0,-999.0,72,-99.99,,,-99.99,,2013-01-04 04:02:00,
2013-01-04 04:12:00,32.0,24.0,30.36,North,352,0.0,-999.0,72,-99.99,,,-99.99,,2013-01-04 04:12:00,
2013-01-04 04:22:00,32.0,24.0,30.36,NNW,347,0.0,-999.0,73,-99.99,,,-99.99,,2013-01-04 04:22:00,
2013-01-04 04:32:00,31.0,23.0,30.36,NNW,347,0.0,-999.0,73,-99.99,,,-99.99,,2013-01-04 04:32:00,
2013-01-04 04:42:00,31.0,23.0,30.36,NNW,347,0.0,-999.0,73,-99.99,,,-99.99,,2013-01-04 04:42:00,
2013-01-04 04:52:00,30.0,24.0,30.37,NNW,347,0.0,-999.0,77,-99.99,,,-99.99,,2013-01-04 04:52:00,
2013-01-04 05:03:00,30.0,24.0,30.37,NNW,347,0.0,-999.0,77,-99.99,,,-99.99,,2013-01-04 05:03:00,
2013-01-04 05:12:00,30.0,24.0,30.37,NNW,347,0.0,-999.0,77,-99.99,,,-99.99,,2013-01-04 05:12:00,
2013-01-04 05:22:00,30.0,24.0,30.38,NNW,347,0.0,-999.0,78,-99.99,,,-99.99,,2013-01-04 05:22:00,
2013-01-04 05:33:00,29.0,23.0,30.37,NNW,347,0.0,-999.0,79,-99.99,,,-99.99,,2013-01-04 05:33:00,
2013-01-04 05:42:00,29.0,23.0,30.37,NNW,347,0.0,-999.0,79,-99.99,,,-99.99,,2013-01-04 05:42:00,
2013-01-04 05:53:00,29.0,24.0,30.37,NNW,347,0.0,-999.0,81,-99.99,,,-99.99,,2013-01-04 05:53:00,
2013-01-04 06:02:00,29.0,24.0,30.37,NNW,347,0.0,-999.0,81,-99.99,,,-99.99,,2013-01-04 06:02:00,
2013-01-04 06:12:00,29.0,24.0,30.37,NNW,347,0.0,-999.0,81,-99.99,,,-99.99,,2013-01-04 06:12:00,
2013-01-04 06:22:00,29.0,24.0,30.37,NNW,347,0.0,-999.0,82,-99.99,,,-99.99,,2013-01-04 06:22:00,
2013-01-04 06:32:00,29.0,24.0,30.37,NNW,347,0.0,-999.0,82,-99.99,,,-99.99,,2013-01-04 06:32:00,
2013-01-04 06:42:00,29.0,24.0,30.37,NNW,347,0.0,-999.0,82,-99.99,,,-99.99,,2013-01-04 06:42:00,
2013-01-04 06:52:00,29.0,24.0,30.37,NNW,347,0.0,-999.0,80,-99.99,,,-99.99,,2013-01-04 06:52:00,
2013-01-04 07:02:00,29.0,24.0,30.37,NNW,347,0.0,-999.0,80,-99.99,,,-99.99,,2013-01-04 07:02:00,
2013-01-04 07:12:00,29.0,24.0,30.37,NNW,347,0.0,-999.0,80,-99.99,,,-99.99,,2013-01-04 07:12:00,
2013-01-04 07:22:00,29.0,23.0,30.36,NNW,347,0.0,-999.0,79,-99.99,,,-99.99,,2013-01-04 07:22:00,
2013-01-04 07:32:00,29.0,24.0,30.36,NNW,347,0.0,-999.0,80,-99.99,,,-99.99,,2013-01-04 07:32:00,
2013-01-04 07:42:00,29.0,24.0,30.36,NNW,347,0.0,-999.0,80,-99.99,,,-99.99,,2013-01-04 07:42:00,
2013-01-04 07:52:00,28.0,23.0,30.37,NNW,347,0.0,-999.0,81,-99.99,,,-99.99,,2013-01-04 07:52:00,
2013-01-04 08:02:00,28.0,23.0,30.36,NNW,347,0.0,-999.0,80,-99.99,,,-99.99,,2013-01-04 08:02:00,
2013-01-04 08:12:00,28.0,23.0,30.36,NNW,347,0.0,-999.0,80,-99.99,,,-99.99,,2013-01-04 08:12:00,
2013-01-04 08:22:00,27.0,23.0,30.36,NNW,347,0.0,-999.0,84,-99.99,,,-99.99,,2013-01-04 08:22:00,
2013-01-04 08:32:00,26.0,22.0,30.36,NNW,347,0.0,-999.0,84,-99.99,,,-99.99,,2013-01-04 08:32:00,
2013-01-04 08:42:00,26.0,22.0,30.36,NNW,347,0.0,-999.0,84,-99.99,,,-99.99,,2013-01-04 08:42:00,
2013-01-04 08:53:00,26.0,23.0,30.35,NNW,347,0.0,-999.0,87,-99.99,,,-99.99,,2013-01-04 08:53:00,
2013-01-04 09:02:00,25.0,22.0,30.36,NNW,347,0.0,-999.0,87,-99.99,,,-99.99,,2013-01-04 09:02:00,